Location: Wapato
(46.4478°N, 120.4212°W)
Time: 09:44:43
(UTC+00:00)

VELOX 1 - Visible Passes

Search period start: 09 June 2026 00:00
Search period end: 19 June 2026 00:00
Orbit: 569 x 578 km, 98.3° (Epoch: 9 June)

Date Brightness Start Highest point End Pass type
(mag) Time Alt. Az. Time Alt. Az. Time Alt. Az.
9 Jun ? 06:23:00 10° ENE 06:24:56 13° E 06:25:15 13° E visible
9 Jun ? 07:56:25 10° N 08:00:29 62° WNW 08:01:27 46° SW visible
10 Jun ? 06:25:45 10° ENE 06:27:56 14° E 06:28:15 14° E visible
10 Jun ? 07:59:23 10° N 08:03:25 58° WNW 08:04:27 43° SW visible
11 Jun ? 06:28:31 10° NE 06:30:54 15° E 06:31:14 15° E visible
11 Jun ? 08:02:20 10° N 08:06:21 54° WNW 08:07:26 41° WSW visible
12 Jun ? 06:31:19 10° NE 06:33:51 16° E 06:34:13 16° E visible
12 Jun ? 08:05:17 10° N 08:09:17 50° WNW 08:10:25 38° WSW visible
13 Jun ? 06:34:06 10° NE 06:36:48 17° E 06:37:11 17° E visible
13 Jun ? 08:08:14 10° N 08:12:11 47° WNW 08:13:23 36° WSW visible
14 Jun ? 06:36:55 10° NE 06:39:45 18° E 06:40:08 18° E visible
14 Jun ? 08:11:10 10° N 08:15:06 44° WNW 08:16:20 34° WSW visible
15 Jun ? 06:39:42 10° NE 06:42:40 19° E 06:43:05 19° E visible
15 Jun ? 08:14:06 10° N 08:17:59 42° WNW 08:19:17 32° WSW visible
16 Jun ? 06:42:31 10° NE 06:45:35 20° E 06:46:01 20° ESE visible
16 Jun ? 08:17:02 10° N 08:20:52 39° WNW 08:22:13 30° WSW visible
17 Jun ? 06:45:19 10° NE 06:48:29 21° E 06:48:56 21° ESE visible
17 Jun ? 08:19:56 10° N 08:23:44 37° WNW 08:25:08 28° WSW visible
18 Jun ? 06:48:06 10° NE 06:51:23 23° E 06:51:51 22° ESE visible
18 Jun ? 08:22:51 10° N 08:26:36 35° WNW 08:28:03 26° WSW visible
